[[{"header":{"parameterUnit":"m.s-1","parameterCategory":1,"la1":30.2992,"la2":30.254,"lo1":-89.0895,"lo2":-89.0443,"dy":0.0025,"dx":0.0025,"nx":19,"ny":19,"refTime":"2026-04-20T03:00:00:Z","depth":0,"parameterNumber":2,"parameterNumberName":"U-component_of_WINDS"},"data":[0,0,0,-1.0669,-1.0671,-1.0762,-1.0762,-1.0881,-1.0882,0,0,0,0,0,0,0,0,0,0,0,-1.0645,-1.0645,-1.0669,-1.0672,-1.0762,-1.0762,-1.088,-1.0882,0,0,0,0,0,0,0,0,0,0,0,-1.0644,-1.0645,-1.0646,-1.0672,-1.0762,-1.0762,-1.088,-1.0811,0,0,0,0,0,0,0,0,0,0,-1.0723,-1.0702,-1.0645,-1.0646,-1.0672,-1.0762,-1.0762,-1.0807,-1.0815,-1.0841,0,-1.0864,0,-1.0875,-1.089,-1.089,0,0,0,-1.067,-1.0695,-1.0718,-1.0646,-1.0673,-1.0762,-1.0721,-1.0812,-1.082,-1.0851,-1.0866,-1.087,-1.0877,-1.0891,-1.0891,-1.1043,-1.1043,0,0,-1.0665,-1.0662,-1.0712,-1.0724,-1.071,-1.0718,-1.0724,-1.0817,-1.0833,-1.0866,-1.0873,-1.0879,-1.0891,-1.0892,-1.1042,-1.1043,0,0,0,-1.0652,-1.0659,-1.0679,-1.0719,-1.0735,-1.072,-1.0727,-1.0829,-1.0836,-1.0874,-1.088,-1.0892,-1.0893,-1.1041,-1.1042,-1.1078,0,0,0,-1.0649,-1.0651,-1.0677,-1.0676,-1.0733,-1.0783,-1.0737,-1.0829,-1.084,-1.0879,-1.0892,-1.0895,-1.104,-1.1042,-1.1075,-1.1095,0,0,0,-1.0638,-1.0649,-1.0663,-1.0675,-1.0714,-1.0782,-1.0794,-1.0832,-1.0844,-1.089,-1.0895,-1.104,-1.1041,-1.1072,-1.1091,-1.1134,0,0,0,-1.0626,-1.0694,-1.0664,-1.0742,-1.0713,-1.0802,-1.0793,-1.086,-1.0904,-1.0893,-1.104,-1.1042,-1.1071,-1.1089,-1.1132,-1.1171,-1.1187,0,0,-1.071,-1.0704,-1.075,-1.0726,-1.0819,-1.0789,-1.0888,-1.0932,-1.0939,-1.1007,-1.1011,-1.1076,-1.1091,-1.1134,-1.1274,-1.1286,0,0,0,-1.0776,-1.0809,-1.0834,-1.0876,-1.091,-1.0941,-1.0969,-1.0985,-1.1043,-1.0973,-1.1102,-1.1112,-1.1137,-1.1156,-1.1166,-1.1188,-1.105,-1.105,-1.105,-1.0892,-1.0897,-1.0973,-1.0988,-1.1028,-1.1056,-1.1089,-1.1115,-1.1109,-1.1138,-1.116,-1.1244,-1.1266,-1.1274,-1.1297,-1.118,-1.118,-1.118,-1.118,-1.1017,-1.1065,-1.1052,-1.1122,-1.1126,-1.1185,-1.1213,-1.1207,-1.1262,-1.1229,-1.1252,-1.1217,-1.1288,-1.1308,-1.1183,-1.1182,-1.1182,-1.1182,-1.1181,-1.1095,-1.1118,-1.1135,-1.1194,-1.1239,-1.1252,-1.1305,-1.1306,-1.1308,-1.133,-1.1352,-1.1352,-1.1352,-1.134,-1.1341,-1.1341,-1.1341,-1.1341,-1.1342,-1.1169,-1.1187,-1.1232,-1.1272,-1.1298,-1.1332,-1.1358,-1.1384,-1.1413,-1.141,-1.141,-1.1401,-1.1293,-1.1267,-1.1346,-1.1345,-1.1345,-1.1344,-1.1344,-1.1296,-1.1267,-1.1336,-1.1362,-1.1408,-1.1452,-1.1453,-1.1504,-1.1525,-1.1551,-1.1536,-1.1456,-1.145,-1.1442,-1.142,-1.1534,-1.1534,-1.1534,-1.1534,-1.1363,-1.1359,-1.1429,-1.147,-1.151,-1.1517,-1.1594,-1.1614,-1.163,-1.1643,-1.1626,-1.1597,-1.1588,-1.1588,-1.1576,-1.1556,-1.1703,-1.1703,-1.1703,-1.1442,-1.1441,-1.1507,-1.1522,-1.1558,-1.1588,-1.166,-1.1707,-1.172,-1.171,-1.1654,-1.1647,-1.1599,-1.1583,-1.1574,-1.1556,-1.1519,0,0]},{"header":{"parameterUnit":"m.s-1","parameterCategory":1,"la1":30.2992,"la2":30.254,"lo1":-89.0895,"lo2":-89.0443,"dy":0.0025,"dx":0.0025,"nx":19,"ny":19,"refTime":"2026-04-20T03:00:00:Z","depth":0,"parameterNumber":3,"parameterNumberName":"V-component_of_WINDS"},"data":[0,0,0,-6.9491,-6.9496,-6.9687,-6.9688,-6.9942,-6.9945,0,0,0,0,0,0,0,0,0,0,0,-6.9445,-6.9447,-6.9491,-6.9496,-6.9687,-6.9688,-6.9942,-6.9945,0,0,0,0,0,0,0,0,0,0,0,-6.9444,-6.9446,-6.9449,-6.9497,-6.9687,-6.9688,-6.9941,-6.9792,0,0,0,0,0,0,0,0,0,0,-6.9604,-6.9572,-6.9446,-6.9449,-6.9498,-6.9687,-6.9688,-6.9785,-6.9802,-6.9861,0,-6.992,0,-6.9937,-6.9963,-6.9964,0,0,0,-6.9487,-6.9559,-6.9602,-6.9449,-6.95,-6.9687,-6.9598,-6.9794,-6.9813,-6.9883,-6.9924,-6.9933,-6.9941,-6.9964,-6.9966,-7.0347,-7.0349,0,0,-6.9477,-6.9483,-6.9589,-6.9614,-6.959,-6.9592,-6.9604,-6.9805,-6.9848,-6.9925,-6.9938,-6.9945,-6.9966,-6.9968,-7.0345,-7.0347,0,0,0,-6.9452,-6.9476,-6.9514,-6.9604,-6.9638,-6.9598,-6.9612,-6.9839,-6.9851,-6.9941,-6.9948,-6.9968,-6.9971,-7.0342,-7.0346,-7.0461,0,0,0,-6.9445,-6.9462,-6.951,-6.9516,-6.9635,-6.9742,-6.9642,-6.9837,-6.986,-6.9947,-6.9968,-6.9974,-7.034,-7.0344,-7.0453,-7.0514,0,0,0,-6.9428,-6.946,-6.9492,-6.9516,-6.9599,-6.9739,-6.9762,-6.9842,-6.9865,-6.9964,-6.9974,-7.0338,-7.0343,-7.0446,-7.0502,-7.0617,0,0,0,-6.9411,-6.959,-6.9494,-6.9696,-6.9598,-6.9811,-6.9761,-6.9918,-7.0017,-6.9969,-7.034,-7.0345,-7.0443,-7.0494,-7.0609,-7.0714,-7.0759,0,0,-6.964,-6.9618,-6.9736,-6.9655,-6.9888,-6.9781,-7.0029,-7.0111,-7.0112,-7.0267,-7.0276,-7.0456,-7.0501,-7.0615,-7.1009,-7.1045,0,0,0,-6.9811,-6.9896,-6.9956,-7.0052,-7.0122,-7.0186,-7.023,-7.026,-7.0393,-7.0195,-7.0528,-7.0555,-7.0621,-7.0671,-7.0702,-7.0757,-7.0369,-7.0368,-7.0368,-7.0142,-7.0138,-7.0333,-7.0352,-7.0445,-7.049,-7.0564,-7.0612,-7.0577,-7.0656,-7.0702,-7.0943,-7.1001,-7.1024,-7.1083,-7.0758,-7.0758,-7.0759,-7.0759,-7.0477,-7.0596,-7.0548,-7.0721,-7.0713,-7.0856,-7.0905,-7.0876,-7.1006,-7.0907,-7.0965,-7.0858,-7.1064,-7.1114,-7.0767,-7.0766,-7.0765,-7.0764,-7.0763,-7.0693,-7.0749,-7.0786,-7.0925,-7.1032,-7.1043,-7.1171,-7.1159,-7.1147,-7.1205,-7.1251,-7.1249,-7.1245,-7.1228,-7.1229,-7.123,-7.1231,-7.1231,-7.1232,-7.0902,-7.094,-7.1051,-7.1142,-7.1202,-7.1279,-7.1326,-7.1384,-7.1444,-7.1425,-7.1425,-7.1382,-7.1086,-7.1011,-7.1245,-7.1243,-7.1241,-7.124,-7.1239,-7.1241,-7.1163,-7.1335,-7.1397,-7.1501,-7.1607,-7.1591,-7.171,-7.1755,-7.1818,-7.1763,-7.1547,-7.1522,-7.1497,-7.1435,-7.1765,-7.1765,-7.1765,-7.1765,-7.1423,-7.141,-7.1584,-7.1682,-7.1776,-7.178,-7.1971,-7.2009,-7.2034,-7.2062,-7.2012,-7.1929,-7.1905,-7.1894,-7.1861,-7.1803,-7.2219,-7.2219,-7.2219,-7.1631,-7.1627,-7.1794,-7.1822,-7.1903,-7.1971,-7.215,-7.2262,-7.2274,-7.2237,-7.2082,-7.2063,-7.1929,-7.1886,-7.1845,-7.1794,-7.1687,0,0]}]]